Location: Haliburton Scout Reserve
(45.0900°N, 78.3200°W)
Time: 02:25:40
(UTC-04:00)

NANOSAT C BR1 - Pass Details

Date: 17 May 2022
Orbit: 583 x 601 km, 98.0° (Epoch: 27 June)

Event Time Altitude Azimuth Distance (km) Brightness Sun altitude
Rises 03:22:56 0° 12° (NNE) 2,826 ? -18.8°
Reaches altitude 10° 03:25:06 10° 12° (NNE) 1,919 ? -18.6°
Maximum altitude 03:29:16 86° 286° (WNW) 592 ? -18.2°
Enters shadow 03:30:46 39° 198° (SSW) 886 ? -18.0°
